Weather History for KMGY - June, 2014

Change the Weather History Date:

Sunday, June 8, 2014

  Actual Average (KFFO) Record (KFFO)
Temperature  
Mean Temperature 68 °F -  
Max Temperature 73 °F 76 °F 95 °F (1999)
Min Temperature 63 °F 57 °F 41 °F (1998)
Cooling Degree Days 2    
Growing Degree Days 18 (Base 50)    
Moisture  
Dew Point 60 °F    
Average Humidity 76    
Maximum Humidity 90    
Minimum Humidity 55    
Precipitation  
Precipitation 0.15 in - - ()
Sea Level Pressure  
Sea Level Pressure 29.80 in    
Wind  
Wind Speed 9 mph (South)    
Max Wind Speed 18 mph    
Max Gust Speed 26 mph    
Visibility 10 miles    
Events Rain    
Averages and records for this station are not official NWS values.
T = Trace of Precipitation, MM = Missing Value Source: NWS Daily Summary

Daily Weather History Graph

Daily Weather History Graph

Search for Another Location

Airport or City:

Trip Planner

Search our weather history database for the weather conditions in past years. The results will help you decide how hot, cold, wet, or windy it might be!

Date:

Astronomy

Jun. 08, 2014 Rise Set
Actual Time 6:09 AM EDT 9:02 PM EDT
Civil Twilight 5:37 AM EDT 9:35 PM EDT
Nautical Twilight 4:56 AM EDT 10:15 PM EDT
Astronomical Twilight 4:09 AM EDT 11:02 PM EDT
Moon 4:21 PM EDT (6/8) 3:00 AM EDT (6/8)
Length of Visible Light 15h 58m
Length of Day
14h 53m
Waxing Gibbous, 77% of the Moon is Illuminated
Jun 8
Waxing Gibbous
Jun 13
Full
Jun 19
Last Quarter
Jun 27
New
Jul 5
First Quarter

Hourly Weather History & Observations

Time (EDT) Temp. Dew Point Humidity Pressure Visibility Wind Dir Wind Speed Gust Speed Precip Events Conditions
12:53 AM 70.0 °F 53.1 °F 55% 29.82 in 10.0 mi ESE 9.2 mph - N/A   Clear
1:53 AM 70.0 °F 53.1 °F 55% 29.79 in 10.0 mi ESE 11.5 mph - N/A   Mostly Cloudy
2:53 AM 70.0 °F 53.1 °F 55% 29.75 in 10.0 mi ESE 12.7 mph - N/A   Mostly Cloudy
3:53 AM 68.0 °F 55.0 °F 63% 29.72 in 10.0 mi SE 10.4 mph - 0.00 in   Overcast
4:30 AM 66.0 °F 57.9 °F 75% 29.75 in 2.0 mi Variable 3.5 mph - 0.12 in Rain Heavy Rain
4:38 AM 64.0 °F 59.0 °F 84% 29.75 in 7.0 mi SSW 3.5 mph - 0.12 in Rain Light Rain
4:53 AM 64.9 °F 59.0 °F 81% 29.72 in 10.0 mi SSE 6.9 mph - 0.13 in Rain Light Rain
5:53 AM 66.0 °F 59.0 °F 78% 29.70 in 10.0 mi SSE 8.1 mph - 0.00 in   Overcast
6:28 AM 66.0 °F 60.1 °F 81% 29.73 in 10.0 mi South 5.8 mph - N/A   Overcast
6:53 AM 66.0 °F 61.0 °F 84% 29.71 in 10.0 mi South 8.1 mph - 0.00 in   Overcast
7:10 AM 68.0 °F 61.0 °F 78% 29.74 in 10.0 mi SSW 8.1 mph - N/A   Overcast
7:53 AM 66.9 °F 62.1 °F 84% 29.73 in 10.0 mi SSW 6.9 mph - N/A   Overcast
8:53 AM 71.1 °F 64.0 °F 78% 29.74 in 10.0 mi South 8.1 mph - N/A   Mostly Cloudy
9:53 AM 72.0 °F 64.0 °F 76% 29.73 in 10.0 mi SSW 10.4 mph - N/A   Overcast
10:48 AM 71.6 °F 64.4 °F 78% 29.75 in 10.0 mi SW 8.1 mph - N/A   Overcast
10:53 AM 72.0 °F 64.0 °F 76% 29.73 in 10.0 mi SW 8.1 mph 17.3 mph N/A   Overcast
11:53 AM 70.0 °F 64.9 °F 84% 29.76 in 10.0 mi SSW 12.7 mph - 0.00 in   Overcast
12:17 PM 72.0 °F 66.0 °F 81% 29.78 in 10.0 mi SW 11.5 mph - N/A   Overcast
12:49 PM 71.6 °F 64.4 °F 78% 29.77 in 10.0 mi SW 9.2 mph - N/A   Overcast
12:53 PM 72.0 °F 64.9 °F 78% 29.76 in 10.0 mi WSW 11.5 mph - N/A   Overcast
1:26 PM 64.9 °F 62.1 °F 90% 29.81 in 10.0 mi NNW 16.1 mph 25.3 mph 0.02 in Rain Light Rain
1:53 PM 63.0 °F 60.1 °F 90% 29.81 in 10.0 mi North 18.4 mph 26.5 mph 0.02 in   Overcast
2:53 PM 63.0 °F 59.0 °F 87% 29.85 in 10.0 mi North 16.1 mph 24.2 mph N/A   Overcast
3:53 PM 64.9 °F 60.1 °F 84% 29.88 in 10.0 mi North 13.8 mph 20.7 mph N/A   Overcast
4:53 PM 69.1 °F 61.0 °F 75% 29.89 in 10.0 mi North 10.4 mph - N/A   Mostly Cloudy
5:53 PM 71.1 °F 60.1 °F 68% 29.88 in 10.0 mi North 13.8 mph - N/A   Partly Cloudy
6:53 PM 70.0 °F 59.0 °F 68% 29.89 in 10.0 mi NNE 10.4 mph - N/A   Scattered Clouds
7:53 PM 70.0 °F 57.9 °F 65% 29.91 in 10.0 mi North 6.9 mph - N/A   Clear
8:53 PM 66.9 °F 57.9 °F 73% 29.94 in 10.0 mi NE 4.6 mph - N/A   Clear
9:53 PM 66.9 °F 57.0 °F 70% 29.95 in 10.0 mi North 4.6 mph - N/A   Clear
10:53 PM 63.0 °F 57.9 °F 84% 29.96 in 10.0 mi Calm Calm - N/A   Clear
11:53 PM 63.0 °F 57.9 °F 84% 29.97 in 10.0 mi Calm Calm - N/A   Clear